WA0SOP Weather Reports


Display with metric or nautical units.
time (UTC)temp
F
wind
direction
speed
MPH
gust
MPH
rain 1hr
in
rain 24hr
in
rain mn
in
humidity
%
barometer
mb
20260902163012 85 188 1.0 0.0 0.00 0.00 0.02 47 1007.2
20260902161526 83 272 1.0 0.0 0.00 0.00 0.02 48 1007.6
20260902160030 82 263 0.0 0.0 0.00 0.00 0.02 49 1007.5
20260902154550 81 263 0.0 0.0 0.00 0.00 0.02 51 1007.6
20260902153009 80 231 1.0 0.0 0.00 0.00 0.01 50 1007.6
20260902151513 78 192 4.0 0.0 0.00 0.00 0.01 51 1007.8
20260902150029 77 186 4.0 0.0 0.00 0.00 0.01 52 1008.0
20260902144539 75 174 4.0 0.0 0.00 0.00 0.01 53 1007.9
20260902143034 74 178 3.0 0.0 0.00 0.00 0.01 54 1008.1
20260902141557 73 155 3.0 0.0 0.00 0.00 0.01 55 1008.1
20260902140110 72 140 2.0 0.0 0.00 0.00 0.01 58 1008.2
20260902134512 70 110 1.0 0.0 0.00 0.00 0.01 64 1008.4
20260902133017 68 115 4.0 0.0 0.00 0.00 0.01 66 1008.3
20260902131546 68 115 2.0 0.0 0.00 0.00 0.01 69 1008.5
20260902130051 67 115 1.0 0.0 0.00 0.00 0.01 70 1008.1
20260902124618 66 117 3.0 0.0 0.00 0.00 0.01 70 1007.9
20260902123016 65 138 1.0 0.0 0.00 0.00 0.01 69 1008.0
20260902121513 65 142 1.0 0.0 0.00 0.00 0.01 67 1007.9
20260902120031 65 144 1.0 0.0 0.00 0.00 0.01 67 1007.3
20260902114534 65 144 0.0 0.0 0.00 0.00 0.01 66 1007.3
20260902113041 65 144 1.0 0.0 0.00 0.00 0.01 65 1007.3
20260902111600 66 115 2.0 0.0 0.00 0.00 0.01 65 1007.6
20260902110055 66 113 2.0 0.0 0.00 0.00 0.01 65 1007.3
20260902104518 67 115 3.0 0.0 0.00 0.00 0.01 64 1007.0
20260902103043 67 111 4.0 0.0 0.00 0.00 0.01 65 1006.9
20260902101601 67 136 5.0 0.0 0.00 0.00 0.01 65 1007.0
20260902100027 67 153 4.0 0.0 0.00 0.00 0.01 65 1006.7
20260902094536 67 152 4.0 0.0 0.00 0.00 0.01 66 1006.7
20260902093035 67 162 4.0 0.0 0.00 0.00 0.01 66 1006.8
20260902091557 67 121 3.0 0.0 0.00 0.00 0.01 66 1006.9
20260902090036 67 134 3.0 0.0 0.00 0.00 0.01 66 1007.1
20260902084603 67 123 3.0 0.0 0.00 0.00 0.01 66 1007.2
20260902083005 67 150 4.0 0.0 0.00 0.00 0.01 66 1007.2
20260902081529 67 134 5.0 0.0 0.00 0.00 0.01 66 1007.2
20260902080042 67 159 5.0 0.0 0.00 0.00 0.01 66 1007.2
20260902074552 68 151 5.0 0.0 0.00 0.00 0.01 67 1007.2
20260902073011 68 164 1.0 0.0 0.00 0.00 0.01 66 1007.1
20260902071550 69 117 0.0 0.0 0.00 0.00 0.00 66 1007.1
20260902070141 69 124 2.0 0.0 0.00 0.00 0.00 66 1007.2
20260902064549 69 127 3.0 0.0 0.00 0.00 0.00 66 1007.3
20260902063051 69 107 6.0 0.0 0.00 0.00 0.00 66 1007.7
20260902061613 69 119 6.0 0.0 0.00 0.00 0.00 66 1007.6
20260902060018 69 109 8.0 0.0 0.00 0.00 0.00 66 1007.9
20260902054610 68 108 7.0 0.0 0.00 0.00 0.00 66 1007.9
20260902053023 68 101 6.0 0.0 0.00 0.00 0.00 66 1008.2
20260902051531 68 142 3.0 0.0 0.00 0.00 0.00 66 1008.9
20260902050043 68 171 3.0 0.0 0.00 0.00 0.00 66 1009.0
20260902044551 68 64 3.0 0.0 0.00 0.00 0.06 66 1008.6
20260902043101 68 88 4.0 0.0 0.00 0.00 0.06 66 1008.6
20260902041609 68 58 5.0 0.0 0.00 0.00 0.06 66 1008.8
20260902040007 68 27 4.0 0.0 0.00 0.00 0.05 66 1009.1
20260902034526 68 346 3.0 0.0 0.00 0.00 0.05 66 1009.3
20260902033034 68 111 0.0 0.0 0.00 0.00 0.05 66 1008.7
20260902031541 68 111 1.0 0.0 0.00 0.00 0.04 65 1008.4
20260902030107 68 109 4.0 0.0 0.00 0.00 0.04 64 1008.7
20260902024513 68 107 4.0 0.0 0.00 0.00 0.04 64 1008.6
20260902023119 68 88 5.0 0.0 0.00 0.00 0.04 63 1008.7
20260902021511 68 82 6.0 0.0 0.00 0.00 0.03 62 1009.0
20260902020028 68 84 4.0 0.0 0.00 0.00 0.03 62 1009.3
20260902014556 68 113 4.0 0.0 0.00 0.00 0.03 60 1009.4
20260902013106 69 47 5.0 0.0 0.00 0.00 0.02 59 1009.2
20260902011507 70 334 7.0 0.0 0.00 0.00 0.02 59 1008.8
20260902010009 72 56 3.0 0.0 0.00 0.00 0.01 56 1008.7
20260902004614 74 322 4.0 0.0 0.00 0.00 0.00 55 1008.1
20260902003020 76 26 6.0 0.0 0.00 0.00 0.00 54 1008.6
20260902001537 82 55 1.0 0.0 0.00 0.00 0.00 55 1008.0
20260902000051 83 57 2.0 0.0 0.00 0.00 0.00 55 1008.3
20260901234547 84 67 3.0 0.0 0.00 0.00 0.00 54 1008.1
20260901233106 85 107 4.0 0.0 0.00 0.00 0.00 54 1007.3
20260901231503 86 120 2.0 0.0 0.00 0.00 0.00 53 1007.1
20260901230026 86 153 5.0 0.0 0.00 0.00 0.00 50 1006.8
20260901224541 87 118 6.0 0.0 0.00 0.00 0.00 49 1006.9
20260901223048 87 117 7.0 0.0 0.00 0.00 0.00 51 1007.5
20260901221637 87 97 7.0 0.0 0.00 0.00 0.00 48 1007.5
20260901220003 88 136 4.0 0.0 0.00 0.00 0.00 45 1007.8
20260901214519 88 103 6.0 0.0 0.00 0.00 0.00 40 1008.1
20260901213045 88 103 7.0 0.0 0.00 0.00 0.00 42 1008.2
20260901211609 88 97 8.0 0.0 0.00 0.00 0.00 42 1008.1
20260901210002 88 105 9.0 0.0 0.00 0.00 0.00 41 1008.2
20260901204522 88 99 11.0 0.0 0.00 0.00 0.00 42 1008.6
20260901203044 88 80 6.0 0.0 0.00 0.00 0.00 46 1008.8
20260901201607 88 105 8.0 0.0 0.00 0.00 0.00 46 1009.1
20260901200039 88 86 7.0 0.0 0.00 0.00 0.00 46 1009.2
20260901194551 87 114 6.0 0.0 0.00 0.00 0.00 46 1009.3
20260901193059 88 104 7.0 0.0 0.00 0.00 0.00 46 1009.6
20260901191613 87 94 6.0 0.0 0.00 0.00 0.00 48 1009.7
20260901190014 87 126 7.0 0.0 0.00 0.00 0.00 46 1009.6
20260901184514 86 65 7.0 0.0 0.00 0.00 0.00 48 1009.8
20260901183032 86 78 8.0 0.0 0.00 0.00 0.00 48 1009.8
20260901181543 86 83 6.0 0.0 0.00 0.00 0.00 47 1010.2
20260901180043 86 85 6.0 0.0 0.00 0.00 0.00 50 1010.3
20260901174607 85 113 6.0 0.0 0.00 0.00 0.00 50 1010.4
20260901173012 84 105 7.0 0.0 0.00 0.00 0.00 52 1010.4
20260901171528 83 76 10.0 0.0 0.00 0.00 0.00 55 1010.5
20260901170132 84 67 9.0 0.0 0.00 0.00 0.00 55 1010.5
20260901164547 83 101 7.0 0.0 0.00 0.00 0.00 55 1010.5